FENGYUN 1C DEB

Satellite information

Favourite Embed

Satellite Type and Status

DEBRISIN ORBIT

Key statistics

Satellite FENGYUN 1C DEB at a glance.

Uptime

9495

Days in orbit

Revolutions

≈ 14.4

Per day

Orbit

SSO

Sun Synchronous Orbit

Inclination

99.0

Latest

Satellite identification and parameters

Extended collection of information and parameters for FENGYUN 1C DEB.

Object identification

Identified? True

Debris? True

Object name: FENGYUN 1C DEB

International designator: 1999-025BSR

Object number (NORAD): 31385

Object ID (CCSDS): 31385

Country: PEOPLES REPUBLIC OF CHINA (PRC)

Current information (Y/N): Y

RCS size: SMALL

Orbital parameters

Period: 99.747 minutes

Inclination: 98.961 deg

SMA: 7124.595 km

Apoapsis: 842.079 km

Periapsis: 650.841 km

RAAN: 205.046 deg

Eccentricy: 0.013421

Argument of periapsis: 350.7957 deg

Mean anomaly: 19.9038 deg

Mean motion: 14.43651948 rev/day

Mean motion (dot): 0.00000649 rev/day2

B* drag term: 0.0001862 1/REarth

Two-line elements (TLE)

Creation date: May 7, 2025, 3:14 a.m.

Reference frame: TEME

Reference center: EARTH

Epoch: May 6, 2025, 10:52 a.m. UTC

TLE line 0: 0 FENGYUN 1C DEB

TLE line 1: 1 31385U 99025BSR 25126.45280023 .00000649 00000-0 18620-3 0 9994

TLE line 2: 2 31385 98.9610 205.0460 0134210 350.7957 19.9038 14.43651948954361

Live tracking on map

Real-time ground track for satellite FENGYUN 1C DEB.

In-orbit conjunctions

A list of the most updated potential collisions computed for object FENGYUN 1C DEB.

Target Orbit TCA Probability of collision Miss distance Type
SL-16 R/B LEO 2025-01-18 04:50:28 0.0003106758 360.0 (m) ROCKET BODY
FENGYUN 1C DEB SSO 2024-11-11 18:35:20 0.000182923 717.0 (m) DEBRIS

Associated space launch

Chinese polar orbiting meteorological satellite

FENGYUN 1C DEB was lifted into orbit during the mission ‘Long March 4B | Feng Yun 1C’, on board a Long March 4B space rocket.

The launch took place on May 10, 1999, 1:33 a.m. from Launch Complex 7.

For more information about the launch, click the button.

Launch to space Long March 4B | Feng Yun 1C
Long March 4B | Feng Yun 1C

Agency: N/A

Status: Launch Successful

Launch date: May 10, 1999, 1:33 a.m. UTC

Rocket: Long March 4B

Launch pad: Launch Complex 7

Location: Taiyuan Satellite Launch Center, People's Republic of China

...

Latest news about this satellite

There are no fresh news available about this satellite. Check back as we update our databases every day.


Newsletter sign-up

Weekly statistics, charts and insights to help you stay on top of the space industry.